Tracking 21474 objects as of 26-Sep-2020
HD Live streaming from Space Station
objects crossing your sky now

TABLETSAT AURORA

Track TABLETSAT AURORA now!
10-day predictions
TABLETSAT AURORA is classified as:


NORAD ID: 40017
Int'l Code: 2014-033H
Perigee: 577.8 km
Apogee: 609.9 km
Inclination: 98.0 °
Period: 96.4 minutes
Semi major axis: 6964 km
RCS: Unknown
Launch date: June 19, 2014
Source: Commonwealth of Independent States (former USSR) (CIS)
Launch site: Orenburg, Russia (OREN)

Uplink (MHz):
Downlink (MHz): 435.550/436.100
Beacon (MHz): 437.050
Mode: 9600bps GMSK D-STAR
Call sign:
Status: Inactive

aabbcc
Your satellite tracking list
Your tracking list is empty




NASA's NSSDC Master Catalog

Two Line Element Set (TLE):
1 40017U 14033H   20269.46575082 -.00000180  00000-0 -11165-4 0  9998
2 40017  98.0353 222.1764 0023045 336.2728  23.7415 14.93595322341509
Source of the keplerian elements: AFSPC